| time (UTC) | temp C | wind direction | speed KPH | gust KPH | rain 1hr cm | rain 24hr cm | rain mn cm | humidity % | barometer mb |
| 20260504050002 | 15 | 270 | 0.0 | 0.0 | 0.00 | 0.00 | 0.00 | 51 | 995.0 |
| 20260504044601 | 14 | 278 | 0.0 | 0.0 | 0.00 | 0.00 | 0.00 | 52 | 995.2 |
| 20260504043101 | 13 | 260 | 0.0 | 0.0 | 0.00 | 0.00 | 0.00 | 55 | 995.4 |
| 20260504041553 | 12 | 274 | 0.0 | 0.0 | 0.00 | 0.00 | 0.00 | 55 | 995.4 |
| 20260504040058 | 12 | 270 | 0.0 | 0.0 | 0.00 | 0.00 | 0.00 | 57 | 995.4 |
| 20260504034551 | 11 | 274 | 0.0 | 0.0 | 0.00 | 0.00 | 0.00 | 60 | 995.4 |
| 20260504033045 | 10 | 260 | 0.0 | 0.0 | 0.00 | 0.00 | 0.00 | 64 | 995.3 |
| 20260504031556 | 8 | 241 | 0.0 | 0.0 | 0.00 | 0.00 | 0.00 | 68 | 995.3 |
| 20260504030041 | 7 | 241 | 0.0 | 0.0 | 0.00 | 0.00 | 0.00 | 71 | 995.2 |
| 20260504024541 | 6 | 247 | 0.0 | 0.0 | 0.00 | 0.00 | 0.00 | 72 | 995.0 |
| 20260504023037 | 6 | 265 | 0.0 | 0.0 | 0.00 | 0.00 | 0.00 | 72 | 995.2 |
| 20260504021536 | 5 | 297 | 0.0 | 0.0 | 0.00 | 0.00 | 0.00 | 73 | 995.0 |
| 20260504020039 | 5 | 289 | 0.0 | 0.0 | 0.00 | 0.00 | 0.00 | 73 | 995.0 |
| 20260504014534 | 5 | 265 | 0.0 | 0.0 | 0.00 | 0.00 | 0.00 | 73 | 995.1 |
| 20260504013033 | 5 | 289 | 0.0 | 0.0 | 0.00 | 0.00 | 0.00 | 74 | 995.2 |
| 20260504011533 | 5 | 255 | 0.0 | 0.0 | 0.00 | 0.00 | 0.00 | 75 | 995.2 |
| 20260504010038 | 3 | 281 | 0.0 | 0.0 | 0.00 | 0.00 | 0.00 | 76 | 995.3 |
| 20260504004531 | 3 | 256 | 0.0 | 0.0 | 0.00 | 0.00 | 0.00 | 75 | 995.4 |
| 20260504003028 | 4 | 256 | 0.0 | 0.0 | 0.00 | 0.00 | 0.00 | 74 | 995.4 |
| 20260504001526 | 4 | 265 | 0.0 | 0.0 | 0.00 | 0.00 | 0.00 | 74 | 995.3 |
| 20260504000024 | 5 | 256 | 0.0 | 0.0 | 0.00 | 0.00 | 0.00 | 72 | 995.5 |
| 20260503234525 | 5 | 256 | 0.0 | 0.0 | 0.00 | 0.00 | 0.00 | 71 | 995.4 |
| 20260503233018 | 5 | 265 | 0.0 | 0.0 | 0.00 | 0.00 | 0.00 | 70 | 995.4 |
| 20260503231518 | 6 | 255 | 0.0 | 0.0 | 0.00 | 0.00 | 0.00 | 69 | 995.5 |
| 20260503230016 | 6 | 255 | 0.0 | 0.0 | 0.00 | 0.00 | 0.00 | 69 | 995.5 |
| 20260503224512 | 7 | 265 | 0.0 | 0.0 | 0.00 | 0.00 | 0.00 | 67 | 995.5 |
| 20260503223021 | 8 | 265 | 0.0 | 0.0 | 0.00 | 0.00 | 0.00 | 64 | 995.4 |
| 20260503221511 | 8 | 249 | 0.0 | 0.0 | 0.00 | 0.00 | 0.00 | 63 | 995.5 |
| 20260503220012 | 8 | 253 | 0.0 | 0.0 | 0.00 | 0.00 | 0.00 | 63 | 995.5 |
| 20260503214507 | 8 | 247 | 0.0 | 0.0 | 0.00 | 0.00 | 0.00 | 65 | 995.4 |
| 20260503213004 | 8 | 265 | 0.0 | 0.0 | 0.00 | 0.00 | 0.00 | 67 | 995.5 |
| 20260503211500 | 7 | 265 | 0.0 | 0.0 | 0.00 | 0.00 | 0.00 | 70 | 995.6 |
| 20260503210059 | 6 | 265 | 0.0 | 0.0 | 0.00 | 0.00 | 0.00 | 70 | 995.6 |
| 20260503204617 | 7 | 238 | 0.0 | 0.0 | 0.00 | 0.00 | 0.00 | 69 | 995.7 |
| 20260503203109 | 7 | 238 | 0.0 | 0.0 | 0.00 | 0.00 | 0.00 | 69 | 995.7 |
| 20260503201556 | 7 | 265 | 0.0 | 0.0 | 0.00 | 0.00 | 0.00 | 70 | 995.7 |
| 20260503200056 | 7 | 265 | 0.0 | 0.0 | 0.00 | 0.00 | 0.00 | 70 | 995.7 |
| 20260503194555 | 7 | 265 | 0.0 | 0.0 | 0.00 | 0.00 | 0.00 | 70 | 995.6 |
| 20260503193055 | 7 | 222 | 0.0 | 0.0 | 0.00 | 0.00 | 0.00 | 71 | 995.6 |
| 20260503191604 | 7 | 265 | 0.0 | 0.0 | 0.00 | 0.00 | 0.00 | 71 | 995.8 |
| 20260503190055 | 7 | 217 | 0.0 | 0.0 | 0.00 | 0.00 | 0.00 | 69 | 995.8 |
| 20260503184605 | 8 | 226 | 0.0 | 0.0 | 0.00 | 0.00 | 0.00 | 67 | 995.9 |
| 20260503183049 | 8 | 265 | 0.0 | 0.0 | 0.00 | 0.00 | 0.00 | 67 | 995.9 |
| 20260503181551 | 9 | 265 | 0.0 | 0.0 | 0.00 | 0.00 | 0.00 | 66 | 995.8 |
| 20260503180048 | 10 | 226 | 0.0 | 0.0 | 0.00 | 0.00 | 0.00 | 65 | 995.7 |
| 20260503174601 | 10 | 226 | 0.0 | 0.0 | 0.00 | 0.00 | 0.00 | 64 | 995.7 |
| 20260503173055 | 11 | 227 | 0.0 | 0.0 | 0.00 | 0.00 | 0.00 | 62 | 995.6 |
| 20260503171547 | 12 | 230 | 0.0 | 0.0 | 0.00 | 0.00 | 0.00 | 59 | 995.5 |
| 20260503081601 | 16 | 270 | 0.0 | 0.0 | 0.00 | 0.00 | 0.00 | 39 | 999.3 |
| 20260503071608 | 15 | 297 | 0.0 | 0.0 | 0.00 | 0.00 | 0.00 | 42 | 999.6 |
| 20260503070110 | 15 | 274 | 0.0 | 0.0 | 0.00 | 0.00 | 0.00 | 41 | 999.7 |
| 20260503054551 | 11 | 265 | 0.0 | 0.0 | 0.00 | 0.00 | 0.00 | 50 | 1000.0 |
| 20260503053035 | 12 | 277 | 0.0 | 0.0 | 0.00 | 0.00 | 0.00 | 50 | 1000.0 |